Terug naar catalogus

AEROCUBE 6A

ActiefWetenschapSSO
NORAD 40045·PAYLOAD·🇺🇸 United States

Gelanceerd Jun 19, 2014 vanaf Dombarovsky

Loading…

Volgende Passages (komende 24 uur)

TLE

VersSource: Space-Track

Epoch: Sep 14, 2026, 10:26 UTC

1 40045U 14033AM  26257.43514453  .00003580  00000-0  29638-3 0  9992
2 40045  97.7333  63.5363 0039289  75.4832 285.0744 14.98915437659981

Volg AEROCUBE 6A in realtime met AllMySat

Download on the App Store